Theta_e
323 326 329 330 334 336 339 344 347 347 345 347 346 343 342 342 339 339 338 336 335 333 332 333 333 331 332 333 333 332 335 336
322 324 328 330 332 335 340 343 344 347 344 343 341 339 338 336 336 338 337 335 334 333 331 332 332 331 332 333 333 334 335 336
323 324 327 330 330 334 339 342 343 344 342 340 339 337 335 335 335 336 335 334 334 333 332 332 332 331 332 333 333 332 333 335
321 322 323 327 329 330 336 339 343 341 338 338 337 337 336 335 334 334 335 333 333 332 331 331 332 333 332 332 331 331 330 333
320 324 325 327 327 327 333 338 339 338 337 336 334 334 335 334 334 336 334 335 334 334 333 333 335 336 334 333 332 332 331 331
322 324 326 327 325 324 330 332 335 336 335 334 333 333 334 334 334 335 335 335 336 335 333 332 334 333 333 330 329 328 328 329
324 324 325 325 324 326 328 332 332 333 334 333 334 335 333 334 334 334 335 335 335 333 333 332 334 331 329 330 329 328 327 328
323 323 323 323 325 329 331 331 332 333 332 332 332 333 333 334 334 335 336 335 335 334 332 331 332 329 328 328 328 328 328 329
317 318 320 322 325 327 330 330 332 330 328 328 329 329 332 333 334 336 336 336 335 334 333 330 327 327 329 329 328 326 326 329
316 317 319 322 324 326 329 330 330 331 330 331 333 333 334 334 336 336 336 335 335 333 329 328 327 327 329 328 327 324 327 329
317 315 318 322 323 325 328 329 331 332 333 332 332 334 333 332 333 334 335 333 332 333 331 330 330 329 328 328 327 326 324 326
317 316 317 321 323 326 329 330 331 332 333 332 333 330 329 332 333 333 334 331 332 332 332 330 331 329 328 327 328 328 328 325
316 316 318 321 324 327 329 331 331 332 333 333 332 332 332 333 332 331 332 333 332 330 331 331 331 329 330 328 328 328 331 329
316 317 320 321 325 327 328 329 330 331 332 333 335 332 330 329 329 330 330 331 331 331 330 331 331 330 330 329 329 329 329 332
315 316 318 321 323 326 327 329 328 330 331 332 332 331 330 328 329 329 329 328 327 330 331 331 332 332 331 331 330 330 330 329
316 317 319 321 324 326 327 328 328 330 331 332 332 332 330 329 329 330 329 328 328 331 331 332 332 332 332 332 331 330 331 332
316 318 320 322 324 326 327 328 328 330 331 332 331 331 328 329 329 330 328 329 329 330 330 332 332 333 333 333 332 331 331 331
316 318 320 322 325 327 328 328 328 330 330 331 330 330 329 330 329 328 329 329 330 330 330 332 333 333 333 333 330 331 331 332
316 318 320 322 325 326 326 326 326 326 328 330 331 330 329 329 329 328 328 329 329 328 329 330 332 332 332 330 330 329 329 330
317 318 320 321 322 325 324 326 325 326 329 329 331 331 330 329 328 328 328 328 329 328 330 329 330 331 329 328 326 327 327 327
Wind_Speed
13 17 19 23 18 14 16 14 12 13 10 8 6 6 6 6 8 7 6 5 5 5 5 5 5 7 7 7 7 6 7 8
15 18 20 20 19 18 15 14 12 12 9 8 8 6 6 6 7 8 6 5 6 6 5 6 5 5 6 5 4 5 7 8
17 19 18 17 19 17 15 16 15 13 10 8 8 7 7 6 6 7 6 7 7 7 7 6 5 6 5 6 5 4 5 7
15 14 19 17 17 17 17 17 14 12 11 10 7 6 6 6 5 7 8 8 7 7 7 7 7 5 5 5 4 4 5 5
17 17 17 19 16 14 16 17 16 15 13 10 7 6 6 5 6 8 9 9 9 9 8 7 7 5 7 5 4 4 4 5
17 16 15 13 13 17 15 13 15 14 11 9 6 5 5 5 6 7 9 10 10 9 8 7 6 5 5 4 5 5 5 6
17 14 14 13 15 16 15 16 17 15 11 7 6 5 5 6 6 7 8 10 10 9 7 5 6 5 4 5 5 6 6 6
15 10 9 12 16 17 17 16 17 14 9 6 4 3 5 5 6 6 7 7 8 8 5 6 5 5 5 5 7 6 5 6
5 3 9 13 15 17 18 18 15 11 9 7 4 4 4 5 5 6 6 6 7 7 6 5 5 6 6 6 6 7 6 5
3 4 7 13 15 16 18 17 16 11 8 5 3 3 3 3 2 3 4 5 5 6 6 5 6 5 6 6 7 6 5 5
4 6 8 9 14 17 17 16 15 11 9 6 3 2 3 3 2 1 2 3 4 6 7 5 5 5 5 6 8 8 6 5
5 9 11 12 12 15 15 14 13 11 9 7 6 4 3 1 0 0 1 2 3 4 5 5 5 4 5 5 6 6 6 6
7 10 12 14 15 14 13 13 12 11 9 6 6 4 2 2 2 2 3 2 3 4 5 5 5 5 5 5 7 7 5 5
8 10 13 15 15 14 13 13 11 10 8 7 6 4 4 3 2 2 2 2 2 4 5 4 4 5 6 6 7 7 5 3
11 15 16 17 17 15 13 13 11 10 9 7 5 4 4 2 1 2 2 3 3 4 4 4 3 5 5 6 7 7 6 4
11 14 17 18 17 15 14 13 11 10 8 7 5 5 3 2 1 2 2 3 4 5 4 3 3 4 4 5 5 5 5 4
13 15 16 17 15 15 14 13 10 10 8 7 5 5 4 3 4 3 3 5 5 5 4 2 4 4 4 5 4 5 5 5
14 16 15 14 14 13 12 11 11 9 7 6 5 5 5 5 5 5 5 6 5 4 4 2 3 4 4 4 4 4 4 3
14 15 14 14 12 12 12 10 9 8 7 6 6 6 6 5 5 5 5 6 5 4 3 3 2 5 5 4 4 4 4 4
15 15 15 14 13 13 11 9 8 8 7 6 6 6 6 6 5 5 5 6 5 4 4 4 4 5 5 4 4 4 5 5
Wind_Direction
252 241 226 215 215 205 201 193 190 191 191 189 192 198 199 205 208 211 220 229 235 250 263 262 265 260 265 266 271 270 271 244
240 236 230 225 210 212 193 188 180 188 189 185 193 197 202 210 210 217 227 237 237 247 254 254 251 256 261 261 262 274 266 248
253 243 244 226 223 207 195 182 183 180 182 180 194 200 209 217 218 226 232 240 240 247 246 250 254 253 249 257 249 265 262 245
271 244 239 223 217 202 193 188 178 170 180 182 191 203 210 218 230 237 225 236 239 249 242 242 245 238 248 252 247 263 259 248
255 246 235 222 214 188 189 182 174 174 178 184 193 200 213 222 236 233 230 232 236 238 239 240 247 221 230 225 240 239 247 236
271 252 238 222 199 188 173 180 172 172 173 181 188 192 216 235 242 242 239 237 236 235 236 236 233 230 229 230 227 234 239 234
263 258 243 202 182 171 172 175 170 165 168 175 181 200 224 241 247 248 246 239 232 228 231 235 209 225 231 236 221 237 230 225
289 264 225 178 170 167 165 170 162 157 154 155 170 216 241 245 247 245 241 231 219 215 221 225 211 216 217 216 228 215 232 225
310 262 184 170 171 167 160 153 157 153 153 159 187 220 231 227 235 242 232 220 211 214 219 210 205 216 221 217 225 225 214 197
256 166 183 178 170 165 154 153 155 161 156 151 152 187 216 251 240 242 222 217 214 214 205 205 201 210 208 210 213 214 214 197
217 163 171 183 168 161 152 150 156 156 146 135 134 185 218 220 204 195 212 216 208 215 201 194 193 209 217 211 212 208 196 202
164 152 167 168 160 152 148 147 151 152 154 161 176 206 227 168 199 143 148 168 173 198 194 189 205 204 209 204 203 209 215 191
159 156 157 155 154 149 147 145 150 152 159 166 179 193 181 152 157 156 140 136 152 167 180 187 193 204 202 198 195 214 221 202
133 144 146 148 150 147 145 149 153 151 157 170 185 189 161 169 174 186 179 161 130 183 158 166 182 202 206 196 201 208 227 247
150 152 150 149 153 151 151 157 153 157 167 177 179 159 152 167 171 197 183 156 182 158 155 167 197 208 190 187 191 197 213 236
152 152 150 152 154 154 159 160 152 167 174 172 164 140 139 133 143 100 124 157 161 138 141 156 123 174 192 172 183 187 190 216
150 156 157 156 158 164 161 157 160 167 166 164 155 146 142 139 99 113 145 140 137 133 128 125 145 131 150 165 162 177 195 212
158 164 161 159 163 161 155 161 166 163 169 167 159 153 156 134 122 141 147 136 136 135 132 117 81 90 97 125 131 167 186 182
164 165 161 157 158 160 157 161 157 161 170 166 161 158 162 140 135 145 147 140 134 147 151 153 122 102 96 101 118 146 167 142
165 166 158 159 163 163 161 157 168 163 163 166 166 158 162 151 147 151 158 144 142 157 167 155 139 113 96 99 86 122 127 118